Location: Bauerbach
(50.4985°N, 10.3912°E)
Time: 20:50:31
(UTC+00:00)

TIMED - Pass Details

Date: 13 January 2026
Orbit: 581 x 584 km, 74.1° (Epoch: 18 February)

Event Time Altitude Azimuth Distance (km) Brightness Sun altitude
Rises 05:47:16 0° 212° (SSW) 2,790 7.8 -13.3°
Reaches altitude 10° 05:49:30 10° 215° (SW) 1,895 6.9 -13.0°
Maximum altitude 05:53:41 62° 297° (WNW) 660 4.4 -12.3°
Drops below altitude 10° 05:57:54 10° 18° (NNE) 1,911 7.1 -11.7°
Sets 06:00:10 0° 22° (NNE) 2,816 8.0 -11.4°
